SCP
-0 -0 -0 -0 -0 -0 -0 -0 0 0 -0 0 0 0 0 -0 0 0 0 0 0 0
-0 -0 -0 -0 -0 -0 -0 -0 -0 0 0 -0 0 0 0 0 -0 0 0 0 0 0
0 0 0 -0 0 -0 -0 -0 -0 0 0 0 -0 0 0 0 0 0 0 0 0 0
0 0 0 0 0 0 0 -0 -0 -0 0 0 0 0 0 0 0 0 0 0 0 0
0 0 0 0 0 0 0 0 -0 -0 -0 0 -0 0 0 0 0 -0 0 0 0 0
0 0 0 0 0 0 0 0 0 0 -0 0 0 0 0 0 0 0 0 0 0 0
0 0 0 0 0 0 0 0 0 0 -0 -0 0 -0 0 0 0 0 0 0 0 0
0 0 0 0 0 0 0 0 0 0 0 -0 -0 -0 0 0 0 0 0 0 0 0
0 0 0 0 0 0 0 0 0 0 -0 0 -0 0 0 0 0 0 0 0 0 0
0 0 0 0 0 0 0 0 0 0 -0 -0 -0 0 0 0 0 0 0 0 0 0
0 0 0 0 0 0 0 0 0 0 0 -0 -0 0 0 0 0 0 0 0 0 0
0 0 0 0 0 0 0 0 0 0 -0 -0 -0 0 0 0 -0 0 0 0 0 0
0 0 0 0 0 0 0 0 0 0 -0 -0 -0 0 0 0 -0 0 0 0 0 0
0 0 0 0 0 0 0 0 0 0 -0 -0 -0 -0 0 0 -0 0 -0 0 0 0
Wind_Speed_500mb
63 66 68 71 74 78 84 87 83 80 80 79 79 77 79 86 83 103 97 116 101 111
60 63 66 68 71 72 75 81 84 77 76 76 72 68 74 75 84 98 112 101 99 111
58 58 60 64 68 72 73 74 79 82 78 77 76 70 66 59 72 69 98 103 98 102
56 57 57 60 64 68 72 76 77 80 83 80 80 76 68 59 58 78 82 100 83 111
55 55 57 59 61 64 69 72 77 79 81 84 80 79 73 79 60 53 56 85 107 97
52 54 55 58 62 64 67 69 74 77 80 84 83 82 73 80 69 47 43 45 85 80
50 52 56 58 61 65 67 68 70 73 75 77 81 79 80 80 71 54 40 33 42 75
50 51 54 58 62 65 67 68 67 69 72 73 73 77 81 80 75 63 45 34 25 46
52 51 53 57 63 68 69 68 69 67 70 72 71 68 72 75 76 66 56 38 25 18
53 54 55 59 63 67 71 70 69 72 70 70 68 65 63 66 69 68 59 53 36 17
55 56 58 62 65 68 72 71 73 74 75 70 68 64 59 59 62 59 53 45 42 32
57 59 61 64 68 71 72 75 75 74 73 72 64 63 57 55 56 58 56 53 41 36
56 59 64 67 70 73 74 75 76 73 64 62 61 55 51 46 51 52 52 52 46 39
55 58 63 68 72 73 74 73 68 69 63 57 53 56 49 40 42 47 51 48 50 47
Wind_Direction_500mb
3 3 2 2 2 359 354 350 347 341 336 329 315 300 296 276 257 244 249 235 237 245
356 359 360 359 359 360 357 352 348 347 343 340 329 312 302 281 261 257 241 247 241 246
349 352 354 356 357 357 357 356 350 349 347 346 341 329 316 295 276 271 242 251 241 240
342 345 348 351 353 355 354 356 356 350 349 348 349 345 333 321 297 265 253 241 247 239
335 339 342 346 349 350 352 353 354 356 351 350 350 350 348 344 325 286 273 247 242 243
329 333 338 341 343 344 345 348 349 350 356 354 351 353 351 351 347 305 288 266 243 254
324 329 333 336 338 338 339 341 344 345 348 353 354 351 354 354 350 342 309 276 271 256
316 322 327 331 335 336 335 334 337 340 340 345 350 354 352 353 355 356 338 297 265 264
310 317 322 327 330 332 333 331 331 335 336 338 341 345 350 351 351 358 1 341 304 293
305 311 316 322 326 328 329 330 329 329 332 332 334 337 340 345 348 351 360 5 356 335
301 306 312 317 322 326 325 327 328 327 327 327 328 328 330 334 338 345 348 356 13 1
299 304 310 314 319 323 323 324 324 325 324 323 325 324 326 327 329 334 339 345 360 5
295 302 308 313 318 320 321 320 321 322 324 323 321 322 330 337 324 324 329 336 338 347
294 301 307 311 315 316 317 318 319 319 323 323 320 318 323 338 331 328 321 325 332 337
Wind_Speed_850mb
63 66 68 71 74 78 84 87 83 80 80 79 79 77 79 86 83 103 97 116 101 111
60 63 66 68 71 72 75 81 84 77 76 76 72 68 74 75 84 98 112 101 99 111
58 58 60 64 68 72 73 74 79 82 78 77 76 70 66 59 72 69 98 103 98 102
56 57 57 60 64 68 72 76 77 80 83 80 80 76 68 59 58 78 82 100 83 111
55 55 57 59 61 64 69 72 77 79 81 84 80 79 73 79 60 53 56 85 107 97
52 54 55 58 62 64 67 69 74 77 80 84 83 82 73 80 69 47 43 45 85 80
50 52 56 58 61 65 67 68 70 73 75 77 81 79 80 80 71 54 40 33 42 75
50 51 54 58 62 65 67 68 67 69 72 73 73 77 81 80 75 63 45 34 25 46
52 51 53 57 63 68 69 68 69 67 70 72 71 68 72 75 76 66 56 38 25 18
53 54 55 59 63 67 71 70 69 72 70 70 68 65 63 66 69 68 59 53 36 17
55 56 58 62 65 68 72 71 73 74 75 70 68 64 59 59 62 59 53 45 42 32
57 59 61 64 68 71 72 75 75 74 73 72 64 63 57 55 56 58 56 53 41 36
56 59 64 67 70 73 74 75 76 73 64 62 61 55 51 46 51 52 52 52 46 39
55 58 63 68 72 73 74 73 68 69 63 57 53 56 49 40 42 47 51 48 50 47
Wind_Direction_850mb
3 3 2 2 2 359 354 350 347 341 336 329 315 300 296 276 257 244 249 235 237 245
356 359 360 359 359 360 357 352 348 347 343 340 329 312 302 281 261 257 241 247 241 246
349 352 354 356 357 357 357 356 350 349 347 346 341 329 316 295 276 271 242 251 241 240
342 345 348 351 353 355 354 356 356 350 349 348 349 345 333 321 297 265 253 241 247 239
335 339 342 346 349 350 352 353 354 356 351 350 350 350 348 344 325 286 273 247 242 243
329 333 338 341 343 344 345 348 349 350 356 354 351 353 351 351 347 305 288 266 243 254
324 329 333 336 338 338 339 341 344 345 348 353 354 351 354 354 350 342 309 276 271 256
316 322 327 331 335 336 335 334 337 340 340 345 350 354 352 353 355 356 338 297 265 264
310 317 322 327 330 332 333 331 331 335 336 338 341 345 350 351 351 358 1 341 304 293
305 311 316 322 326 328 329 330 329 329 332 332 334 337 340 345 348 351 360 5 356 335
301 306 312 317 322 326 325 327 328 327 327 327 328 328 330 334 338 345 348 356 13 1
299 304 310 314 319 323 323 324 324 325 324 323 325 324 326 327 329 334 339 345 360 5
295 302 308 313 318 320 321 320 321 322 324 323 321 322 330 337 324 324 329 336 338 347
294 301 307 311 315 316 317 318 319 319 323 323 320 318 323 338 331 328 321 325 332 337